Regional Weather Roundup
Issued by NWS Charleston, SC

Current Version | Previous Version | Graphics & Text | Print | Product List | Glossary On
Versions: 1 2 3 4 5 6 7 8 9 10 11 12 13 14 15 16 17 18 19 20 21 22 23 24 25 26 27 28 29 30 31 32 33 34 35 36 37 38 39 40 41 42 43 44 45 46 47 48 49 50
000
ASUS42 KCHS 201327
RWRCHS

REGIONAL WEATHER ROUNDUP
NATIONAL WEATHER SERVICE CHARLESTON SC
900 AM EDT FRI OCT 20 2017

NOTE: "FAIR" INDICATES FEW OR NO CLOUDS BELOW 12,000 FEET WITH NO
SIGNIFICANT WEATHER AND/OR OBSTRUCTIONS TO VISIBILITY.

NOT ALL STATIONS ARE QUALITY CONTROLLED. USE DATA WITH CAUTION...
ESPECIALLY DEWPOINT OBSERVATIONS.

SCZ027-030-031-034>040-042>050-201400-
...SOUTHEAST SOUTH CAROLINA...

CITY           SKY/WX    TMP DP  RH WIND       PRES   REMARKS
N CHARLESTON   SUNNY     64  58  80 NE7       30.26R
WATERFRONT PRK   N/A     64  58  81 N7        30.10R
JOHNS ISLAND   FAIR      66  59  77 N7        30.26R
PINOPOLIS        N/A     64  59  82 NE7       30.17R
MONCKS CORNER  FAIR      63  59  88 N3        30.28R
SUMMERVILLE    FAIR      57  55  94 CALM      30.29R
BEAUFORT MCAS  SUNNY     63  60  90 NE6       30.26R
BEAUFORT ARPT  FAIR      64  57  77 N6        30.26R HAZE
HILTON HEAD IS SUNNY     66  57  72 NE10        N/A
WALTERBORO     SUNNY     59  52  77 CALM      30.29R
ALLENDALE        N/A     59  52  77 CALM        N/A

...SOUTHERN MIDLANDS AND PEE DEE...

CITY           SKY/WX    TMP DP  RH WIND       PRES   REMARKS
GEORGETOWN     FAIR      61  55  82 CALM      30.28R
KINGSTREE      FAIR      55  54  94 CALM      30.28R
ORANGEBURG     SUNNY     52  48  86 CALM      30.28R
BARNWELL         N/A     57  52  82 CALM      30.29R
AIKEN          FAIR      54  48  82 CALM      30.32R
MANNING        HAZE      55  43  62 MISG      30.28R VSB<1/4
COLUMBIA       MOSUNNY   49  48  97 CALM      30.28R
SUMTER         SUNNY     57  49  76 CALM      30.26R
FLORENCE       SUNNY     57  49  74 CALM      30.28R
MYRTLE BEACH   SUNNY     62  54  74 N5        30.28R
N MYRTLE BEACH SUNNY     62  55  77 NE3       30.26R

$$

GAZ063-065-086>088-099>101-113>116-118-119-134>141-150-201400-
...SOUTHEAST GEORGIA...

CITY           SKY/WX    TMP DP  RH WIND       PRES   REMARKS
SAVANNAH ARPT  MOSUNNY   61  57  87 N5        30.26R
HUNTER AAF     SUNNY     64  56  77 N7        30.23R
FORT STEWART   SUNNY     61  55  80 N5        30.24R
STATESBORO     SUNNY     58  52  79 CALM      30.28R
SYLVANIA       SUNNY     58  54  88 CALM      30.29R
CLAXTON        FAIR      56  55  97 CALM      30.28R

...CSRA...CENTRAL AND FAR SOUTHEAST GEORGIA...

CITY           SKY/WX    TMP DP  RH WIND       PRES   REMARKS
THOMSON        SUNNY     49  45  85 CALM      30.35R
AUGUSTA-BUSH   SUNNY     52  48  86 CALM      30.29R
AUGUSTA-DANIEL SUNNY     57  46  66 VRB3      30.29R
SWAINSBORO     FAIR      61  52  72 MISG      30.29R
VIDALIA        SUNNY     59  55  88 NE6       30.27R
EASTMAN        FAIR      54  54 100 CALM      30.30R
HAZLEHURST     FAIR      58  49  73 CALM      30.26R
ALMA           SUNNY     61  56  83 VRB5      30.24R
WAYCROSS       SUNNY     64  58  81 NE6       30.25R
JESUP          NOT AVBL
BAXLEY         FAIR      59  59 100 NE5       30.26R
BRUNSWICK      SUNNY     66  57  72 N8        30.24R
SAINT SIMONS   SUNNY     69  63  81 N8        30.22R

$$

SCZ027-028-034-036>038-045-046-048>050-GAZ119-141-201400-
...LAKE AND SUPPLEMENTAL COASTAL OBSERVATIONS...

STATION/POSITION TIME  TEMP    WIND        PRES    WAVE   SWELL
                       AIR SEA DIR/SP/G            HT/PER HT/PER/DIR
                 (UTC) (F)     (DEG/KT/KT) (MB)    (FT/S) (FT/S/D)
WINYAH BAY       1245   62     340/  6     1024.0S
LAKE MURRAY      1220   56      CALM  /  2 1024.4
ACE BASIN NERRS  1245   60     360/  1     1025.0R
FORT PULASKI     1300   67 72   20/  9/ 11 1024.7
SAPELO ISLAND    NOT AVBL

$$

ANZ835-935-AMZ111-154-330-350-352-354-370-450-454-472-201400-
...C-MAN AND BUOY OBSERVATIONS...

STATION/POSITION TIME  TEMP    WIND        PRES    WAVE   SWELL
                       AIR SEA DIR/SP/G            HT/PER HT/PER/DIR
                 (UTC) (F)     (DEG/KT/KT) (MB)    (FT/S) (FT/S/D)
BUOY 41004       1300   75 80   40/ 10/ 14 1023.4
BUOY 41008       1250   74 77   40/ 16/ 19 1022.7R   4/ 8   3/120/ 8
FOLLY BEACH CMAN 1300   67     360/  8/ 11 1024.9R
CAPERS NEARSHORE 1308   66 73   30/ 12/ 17 1024.1R
FRIPP NEARSHORE  1308   70      20/ 12/ 17   N/A


STATION/POSITION TIME  TEMP    WIND        PRES    WAVE   SWELL
                       AIR SEA DIR/SP/G            HT/PER HT/PER/DIR
                 (UTC) (F)     (DEG/KT/KT) (MB)    (FT/S) (FT/S/D)
5E ST. MARYS GA  1300      77                N/A     5/ 9
FRYING PAN BUOY  1300          360/ 10/ 12 1023.7
BUOY 41025       1250   72 81  320/ 10/ 12 1023.4R   3/10   3/130/10
CAPE LOOKOUT NC  1300   67     330/  6/  7 1023.8R
BUOY 41002       1250   77 80   30/ 16/ 19 1021.5R   6/ 8   3/ 90/ 8
BUOY 41010       NOT AVBL
ST AUGUSTINE FL  1300   79 77   50/ 15/ 16 1021.8R


$$




USA.gov is the U.S. government's official web portal to all federal, state and local government web resources and services.